,,PressureMeas_1m,,PRMeasQMR101_1,,RHStat155_1m_1,,SRMeasQMS101R_1m,,TAStat155_1m_1,,GenWind_1,,GenWind_1,
2018-09-01, 00:00:06,VALID,919.381,VALID,0.0,VALID,98.142,VALID,-0.006,VALID,20.351,VALID,196.0,VALID,0.0,
2018-09-01, 00:01:06,VALID,919.368,VALID,0.0,VALID,98.073,VALID,-0.005,VALID,20.343,VALID,196.0,VALID,0.0,
2018-09-01, 00:02:06,VALID,919.375,VALID,0.0,VALID,98.003,VALID,-0.004,VALID,20.346,VALID,196.0,VALID,0.0,
2018-09-01, 00:03:06,VALID,919.375,VALID,0.0,VALID,97.972,VALID,-0.01,VALID,20.346,VALID,196.0,VALID,0.0,
2018-09-01, 00:04:06,VALID,919.382,VALID,0.0,VALID,97.944,VALID,-0.012,VALID,20.341,VALID,196.0,VALID,0.0,
2018-09-01, 00:05:06,VALID,919.376,VALID,0.0,VALID,97.896,VALID,0.01,VALID,20.328,VALID,196.0,VALID,0.0,
2018-09-01, 00:06:06,VALID,919.383,VALID,0.0,VALID,97.906,VALID,0.017,VALID,20.322,VALID,196.0,VALID,0.0,
2018-09-01, 00:07:06,VALID,919.399,VALID,0.0,VALID,97.886,VALID,0.006,VALID,20.324,VALID,196.0,VALID,0.0,
2018-09-01, 00:08:06,VALID,919.396,VALID,0.0,VALID,97.878,VALID,0.003,VALID,20.318,VALID,196.0,VALID,0.0,
2018-09-01, 00:09:06,VALID,919.393,VALID,0.0,VALID,97.894,VALID,0.017,VALID,20.309,VALID,196.0,VALID,0.0,
2018-09-01, 00:10:06,VALID,919.391,VALID,0.0,VALID,97.85,VALID,-0.008,VALID,20.292,VALID,196.0,VALID,0.0,
2018-09-01, 00:11:06,VALID,919.39,VALID,0.0,VALID,97.841,VALID,-0.003,VALID,20.273,VALID,196.0,VALID,0.0,
2018-09-01, 00:12:06,VALID,919.382,VALID,0.0,VALID,97.83,VALID,-0.018,VALID,20.253,VALID,197.0,VALID,0.0,
2018-09-01, 00:13:06,VALID,919.385,VALID,0.0,VALID,97.83,VALID,-0.0,VALID,20.243,VALID,195.0,VALID,0.0,
2018-09-01, 00:14:06,VALID,919.351,VALID,0.0,VALID,97.829,VALID,0.014,VALID,20.243,VALID,204.0,VALID,0.0,
2018-09-01, 00:15:06,VALID,919.341,VALID,0.0,VALID,97.841,VALID,0.006,VALID,20.255,VALID,209.0,VALID,0.0,
2018-09-01, 00:16:06,VALID,919.328,VALID,0.0,VALID,97.796,VALID,-0.004,VALID,20.265,VALID,216.0,VALID,0.0,
2018-09-01, 00:17:06,VALID,919.302,VALID,0.0,VALID,97.743,VALID,0.013,VALID,20.277,VALID,223.0,VALID,0.0,
2018-09-01, 00:18:06,VALID,919.298,VALID,0.0,VALID,97.698,VALID,0.02,VALID,20.306,VALID,225.0,VALID,0.0,
2018-09-01, 00:19:06,VALID,919.25,VALID,0.0,VALID,97.617,VALID,-0.009,VALID,20.322,VALID,225.0,VALID,0.0,
2018-09-01, 00:20:06,VALID,919.292,VALID,0.0,VALID,97.446,VALID,0.005,VALID,20.328,VALID,225.0,VALID,0.0,
2018-09-01, 00:21:06,VALID,919.281,VALID,0.0,VALID,97.304,VALID,0.005,VALID,20.341,VALID,225.0,VALID,0.0,
2018-09-01, 00:22:06,VALID,919.289,VALID,0.0,VALID,97.167,VALID,0.004,VALID,20.351,VALID,225.0,VALID,0.0,
2018-09-01, 00:23:06,VALID,919.287,VALID,0.0,VALID,97.038,VALID,-0.009,VALID,20.358,VALID,225.0,VALID,0.0,
2018-09-01, 00:24:06,VALID,919.264,VALID,0.0,VALID,96.923,VALID,-0.011,VALID,20.368,VALID,225.0,VALID,0.0,
2018-09-01, 00:25:06,VALID,919.242,VALID,0.0,VALID,96.856,VALID,-0.013,VALID,20.378,VALID,226.0,VALID,0.0,
2018-09-01, 00:26:06,VALID,919.215,VALID,0.0,VALID,96.774,VALID,-0.013,VALID,20.384,VALID,228.0,VALID,0.0,
2018-09-01, 00:27:06,VALID,919.171,VALID,0.0,VALID,96.667,VALID,-0.004,VALID,20.372,VALID,228.0,VALID,0.0,
2018-09-01, 00:28:06,VALID,919.161,VALID,0.0,VALID,96.677,VALID,-0.006,VALID,20.365,VALID,228.0,VALID,0.0,
2018-09-01, 00:29:06,VALID,919.131,VALID,0.0,VALID,96.696,VALID,-0.017,VALID,20.368,VALID,228.0,VALID,0.0,
2018-09-01, 00:30:06,VALID,919.118,VALID,0.0,VALID,96.645,VALID,-0.011,VALID,20.36,VALID,228.0,VALID,0.0,
2018-09-01, 00:31:06,VALID,919.121,VALID,0.0,VALID,96.518,VALID,-0.017,VALID,20.354,VALID,228.0,VALID,0.0,
2018-09-01, 00:32:06,VALID,919.102,VALID,0.0,VALID,96.457,VALID,-0.007,VALID,20.343,VALID,228.0,VALID,0.0,
2018-09-01, 00:33:06,VALID,919.107,VALID,0.0,VALID,96.361,VALID,-0.012,VALID,20.321,VALID,228.0,VALID,0.0,
2018-09-01, 00:34:06,VALID,919.116,VALID,0.0,VALID,95.962,VALID,-0.022,VALID,20.241,VALID,228.0,VALID,0.0,
2018-09-01, 00:35:06,VALID,919.128,VALID,0.0,VALID,96.156,VALID,-0.016,VALID,20.23,VALID,230.0,VALID,0.0,
2018-09-01, 00:36:06,VALID,919.125,VALID,0.0,VALID,96.435,VALID,-0.02,VALID,20.271,VALID,237.0,VALID,0.0,
2018-09-01, 00:37:06,VALID,919.13,VALID,0.0,VALID,96.458,VALID,0.011,VALID,20.297,VALID,254.0,VALID,0.0,
2018-09-01, 00:38:06,VALID,919.127,VALID,0.0,VALID,96.31,VALID,-0.014,VALID,20.307,VALID,255.0,VALID,0.0,
2018-09-01, 00:39:06,VALID,919.106,VALID,0.0,VALID,96.265,VALID,0.006,VALID,20.319,VALID,255.0,VALID,0.0,
2018-09-01, 00:40:06,VALID,919.108,VALID,0.0,VALID,96.252,VALID,-0.01,VALID,20.314,VALID,255.0,VALID,0.0,
2018-09-01, 00:41:06,VALID,919.091,VALID,0.0,VALID,96.268,VALID,-0.009,VALID,20.297,VALID,255.0,VALID,0.0,
2018-09-01, 00:42:06,VALID,919.094,VALID,0.0,VALID,96.369,VALID,0.001,VALID,20.274,VALID,255.0,VALID,0.0,
2018-09-01, 00:43:06,VALID,919.083,VALID,0.0,VALID,96.556,VALID,-0.002,VALID,20.256,VALID,255.0,VALID,0.0,
2018-09-01, 00:44:06,VALID,919.068,VALID,0.0,VALID,96.771,VALID,-0.022,VALID,20.24,VALID,255.0,VALID,0.0,
2018-09-01, 00:45:06,VALID,919.084,VALID,0.0,VALID,96.948,VALID,-0.016,VALID,20.215,VALID,255.0,VALID,0.0,
2018-09-01, 00:46:06,VALID,919.084,VALID,0.0,VALID,97.046,VALID,0.0,VALID,20.175,VALID,255.0,VALID,0.0,
2018-09-01, 00:47:06,VALID,919.077,VALID,0.0,VALID,97.171,VALID,-0.013,VALID,20.173,VALID,255.0,VALID,0.0,
2018-09-01, 00:48:06,VALID,919.069,VALID,0.0,VALID,97.273,VALID,0.009,VALID,20.178,VALID,255.0,VALID,0.0,
2018-09-01, 00:49:06,VALID,919.063,VALID,0.0,VALID,97.34,VALID,0.01,VALID,20.176,VALID,255.0,VALID,0.0,
2018-09-01, 00:50:06,VALID,919.029,VALID,0.0,VALID,97.426,VALID,0.014,VALID,20.179,VALID,255.0,VALID,0.0,
2018-09-01, 00:51:06,VALID,919.033,VALID,0.0,VALID,97.467,VALID,0.002,VALID,20.161,VALID,255.0,VALID,0.0,
2018-09-01, 00:52:06,VALID,919.016,VALID,0.0,VALID,97.491,VALID,0.02,VALID,20.158,VALID,255.0,VALID,0.0,
2018-09-01, 00:53:06,VALID,919.008,VALID,0.0,VALID,97.442,VALID,0.032,VALID,20.136,VALID,255.0,VALID,0.0,
2018-09-01, 00:54:06,VALID,919.003,VALID,0.0,VALID,97.341,VALID,0.029,VALID,20.091,VALID,255.0,VALID,0.0,
2018-09-01, 00:55:06,VALID,918.988,VALID,0.0,VALID,97.273,VALID,0.045,VALID,20.075,VALID,254.0,VALID,0.0,
2018-09-01, 00:56:06,VALID,918.991,VALID,0.0,VALID,97.314,VALID,0.037,VALID,20.084,VALID,254.0,VALID,0.0,
2018-09-01, 00:57:06,VALID,918.971,VALID,0.0,VALID,97.467,VALID,0.026,VALID,20.106,VALID,255.0,VALID,0.0,
2018-09-01, 00:58:06,VALID,918.964,VALID,0.0,VALID,97.593,VALID,0.035,VALID,20.105,VALID,255.0,VALID,0.0,
2018-09-01, 00:59:06,VALID,918.945,VALID,0.0,VALID,97.624,VALID,0.022,VALID,20.089,VALID,255.0,VALID,0.0,
2018-09-01, 01:00:06,VALID,918.927,VALID,0.0,VALID,97.443,VALID,0.024,VALID,20.032,VALID,255.0,VALID,0.0,
2018-09-01, 01:01:06,VALID,918.903,VALID,0.0,VALID,97.149,VALID,0.024,VALID,19.959,VALID,255.0,VALID,0.0,
2018-09-01, 01:02:06,VALID,918.883,VALID,0.0,VALID,96.957,VALID,0.017,VALID,19.9,VALID,255.0,VALID,0.0,
2018-09-01, 01:03:06,VALID,918.839,VALID,0.0,VALID,95.828,VALID,0.01,VALID,19.776,VALID,308.0,VALID,0.0,
2018-09-01, 01:04:06,VALID,918.827,VALID,0.0,VALID,93.9,VALID,0.032,VALID,19.752,VALID,326.0,VALID,0.0,
2018-09-01, 01:05:06,VALID,918.823,VALID,0.0,VALID,93.352,VALID,0.021,VALID,19.808,VALID,351.0,VALID,0.0,
2018-09-01, 01:06:06,VALID,918.838,VALID,0.0,VALID,93.243,VALID,0.03,VALID,19.834,VALID,357.0,VALID,0.0,
2018-09-01, 01:07:06,VALID,918.844,VALID,0.0,VALID,93.391,VALID,-0.022,VALID,19.808,VALID,331.0,VALID,0.0,
2018-09-01, 01:08:06,VALID,918.855,VALID,0.0,VALID,92.57,VALID,-0.034,VALID,19.768,VALID,314.0,VALID,0.0,
2018-09-01, 01:09:06,VALID,918.876,VALID,0.0,VALID,92.314,VALID,-0.031,VALID,19.774,VALID,314.0,VALID,0.0,
2018-09-01, 01:10:06,VALID,918.897,VALID,0.0,VALID,92.213,VALID,-0.038,VALID,19.794,VALID,294.0,VALID,0.0,
2018-09-01, 01:11:06,VALID,918.905,VALID,0.0,VALID,92.409,VALID,-0.017,VALID,19.822,VALID,292.0,VALID,0.0,
2018-09-01, 01:12:06,VALID,918.907,VALID,0.0,VALID,92.994,VALID,-0.028,VALID,19.827,VALID,292.0,VALID,0.0,
2018-09-01, 01:13:06,VALID,918.896,VALID,0.0,VALID,93.616,VALID,-0.028,VALID,19.778,VALID,292.0,VALID,0.0,
2018-09-01, 01:14:06,VALID,918.878,VALID,0.0,VALID,93.575,VALID,-0.016,VALID,19.711,VALID,316.0,VALID,0.0,
2018-09-01, 01:15:06,VALID,918.866,VALID,0.0,VALID,92.672,VALID,-0.022,VALID,19.705,VALID,331.0,VALID,0.0,
2018-09-01, 01:16:06,VALID,918.853,VALID,0.0,VALID,92.847,VALID,-0.021,VALID,19.726,VALID,332.0,VALID,0.0,
2018-09-01, 01:17:06,VALID,918.861,VALID,0.0,VALID,93.157,VALID,-0.006,VALID,19.704,VALID,332.0,VALID,0.0,
2018-09-01, 01:18:06,VALID,918.835,VALID,0.0,VALID,93.282,VALID,-0.016,VALID,19.655,VALID,332.0,VALID,0.0,
2018-09-01, 01:19:06,VALID,918.842,VALID,0.0,VALID,93.426,VALID,-0.037,VALID,19.604,VALID,332.0,VALID,0.0,
2018-09-01, 01:20:06,VALID,918.821,VALID,0.0,VALID,93.551,VALID,-0.008,VALID,19.572,VALID,332.0,VALID,0.0,
2018-09-01, 01:21:06,VALID,918.799,VALID,0.0,VALID,93.557,VALID,-0.016,VALID,19.563,VALID,332.0,VALID,0.0,
2018-09-01, 01:22:06,VALID,918.806,VALID,0.0,VALID,93.534,VALID,-0.007,VALID,19.586,VALID,332.0,VALID,0.0,
2018-09-01, 01:23:06,VALID,918.791,VALID,0.0,VALID,93.46,VALID,-0.002,VALID,19.603,VALID,333.0,VALID,0.0,
2018-09-01, 01:24:06,VALID,918.774,VALID,0.0,VALID,93.485,VALID,0.002,VALID,19.623,VALID,333.0,VALID,0.0,
2018-09-01, 01:25:06,VALID,918.777,VALID,0.0,VALID,92.996,VALID,-0.009,VALID,19.597,VALID,333.0,VALID,0.0,
2018-09-01, 01:26:06,VALID,918.744,VALID,0.0,VALID,93.007,VALID,0.001,VALID,19.58,VALID,341.0,VALID,0.0,
2018-09-01, 01:27:06,VALID,918.73,VALID,0.0,VALID,93.016,VALID,-0.014,VALID,19.528,VALID,345.0,VALID,0.0,
2018-09-01, 01:28:06,VALID,918.708,VALID,0.0,VALID,92.206,VALID,0.005,VALID,19.536,VALID,336.0,VALID,0.0,
2018-09-01, 01:29:06,VALID,918.698,VALID,0.0,VALID,91.946,VALID,-0.002,VALID,19.579,VALID,346.0,VALID,0.0,
2018-09-01, 01:30:06,VALID,918.669,VALID,0.0,VALID,92.029,VALID,-0.013,VALID,19.589,VALID,338.0,VALID,0.0,
2018-09-01, 01:31:06,VALID,918.651,VALID,0.0,VALID,92.44,VALID,-0.014,VALID,19.572,VALID,333.0,VALID,0.0,
2018-09-01, 01:32:06,VALID,918.653,VALID,0.0,VALID,92.305,VALID,-0.013,VALID,19.556,VALID,308.0,VALID,0.0,
2018-09-01, 01:33:06,VALID,918.656,VALID,0.0,VALID,92.342,VALID,0.004,VALID,19.568,VALID,309.0,VALID,0.0,
2018-09-01, 01:34:06,VALID,918.64,VALID,0.0,VALID,92.047,VALID,0.004,VALID,19.59,VALID,309.0,VALID,0.0,
2018-09-01, 01:35:06,VALID,918.654,VALID,0.0,VALID,91.79,VALID,-0.006,VALID,19.631,VALID,308.0,VALID,0.0,
2018-09-01, 01:36:06,VALID,918.657,VALID,0.0,VALID,91.991,VALID,0.008,VALID,19.648,VALID,293.0,VALID,0.0,
2018-09-01, 01:37:06,VALID,918.66,VALID,0.0,VALID,92.376,VALID,0.002,VALID,19.666,VALID,292.0,VALID,0.0,
2018-09-01, 01:38:06,VALID,918.65,VALID,0.0,VALID,92.979,VALID,-0.003,VALID,19.684,VALID,292.0,VALID,0.0,
2018-09-01, 01:39:06,VALID,918.657,VALID,0.0,VALID,93.026,VALID,-0.009,VALID,19.673,VALID,293.0,VALID,0.0,
2018-09-01, 01:40:06,VALID,918.612,VALID,0.0,VALID,93.636,VALID,-0.007,VALID,19.666,VALID,292.0,VALID,0.0,
2018-09-01, 01:41:06,VALID,918.586,VALID,0.0,VALID,94.699,VALID,-0.004,VALID,19.68,VALID,292.0,VALID,0.0,
2018-09-01, 01:42:06,VALID,918.568,VALID,0.0,VALID,95.167,VALID,-0.015,VALID,19.67,VALID,288.0,VALID,0.0,
2018-09-01, 01:43:06,VALID,918.538,VALID,0.0,VALID,95.352,VALID,-0.017,VALID,19.645,VALID,288.0,VALID,0.0,
2018-09-01, 01:44:06,VALID,918.498,VALID,0.0,VALID,95.299,VALID,-0.019,VALID,19.628,VALID,288.0,VALID,0.0,
2018-09-01, 01:45:06,VALID,918.462,VALID,0.0,VALID,95.6,VALID,-0.009,VALID,19.645,VALID,290.0,VALID,0.0,
2018-09-01, 01:46:06,VALID,918.436,VALID,0.0,VALID,95.99,VALID,-0.004,VALID,19.664,VALID,306.0,VALID,0.0,
2018-09-01, 01:47:06,VALID,918.441,VALID,0.0,VALID,95.619,VALID,-0.019,VALID,19.611,VALID,310.0,VALID,0.0,
2018-09-01, 01:48:06,VALID,918.42,VALID,0.0,VALID,95.476,VALID,-0.0,VALID,19.578,VALID,322.0,VALID,0.0,
2018-09-01, 01:49:06,VALID,918.418,VALID,0.0,VALID,95.806,VALID,-0.03,VALID,19.586,VALID,322.0,VALID,0.0,
2018-09-01, 01:50:06,VALID,918.4,VALID,0.0,VALID,96.263,VALID,-0.015,VALID,19.607,VALID,322.0,VALID,0.0,
2018-09-01, 01:51:06,VALID,918.384,VALID,0.0,VALID,96.603,VALID,-0.02,VALID,19.643,VALID,322.0,VALID,0.0,
2018-09-01, 01:52:06,VALID,918.378,VALID,0.0,VALID,96.855,VALID,-0.008,VALID,19.649,VALID,322.0,VALID,0.0,
2018-09-01, 01:53:06,VALID,918.361,VALID,0.0,VALID,96.678,VALID,-0.014,VALID,19.594,VALID,322.0,VALID,0.0,
2018-09-01, 01:54:06,VALID,918.362,VALID,0.0,VALID,96.169,VALID,-0.007,VALID,19.509,VALID,322.0,VALID,0.0,
2018-09-01, 01:55:06,VALID,918.341,VALID,0.0,VALID,96.271,VALID,-0.001,VALID,19.5,VALID,322.0,VALID,0.0,
2018-09-01, 01:56:06,VALID,918.335,VALID,0.0,VALID,96.116,VALID,0.01,VALID,19.483,VALID,322.0,VALID,0.0,
2018-09-01, 01:57:06,VALID,918.319,VALID,0.0,VALID,95.571,VALID,-0.006,VALID,19.43,VALID,322.0,VALID,0.0,
2018-09-01, 01:58:06,VALID,918.291,VALID,0.0,VALID,95.615,VALID,-0.003,VALID,19.408,VALID,323.0,VALID,0.0,
2018-09-01, 01:59:06,VALID,918.261,VALID,0.0,VALID,95.078,VALID,-0.008,VALID,19.38,VALID,360.0,VALID,0.0,
2018-09-01, 02:00:06,VALID,918.252,VALID,0.0,VALID,93.642,VALID,0.003,VALID,19.362,VALID,350.0,VALID,0.0,
2018-09-01, 02:01:06,VALID,918.242,VALID,0.0,VALID,93.025,VALID,0.01,VALID,19.409,VALID,341.0,VALID,0.0,
2018-09-01, 02:02:06,VALID,918.218,VALID,0.0,VALID,93.161,VALID,-0.011,VALID,19.443,VALID,299.0,VALID,0.0,
2018-09-01, 02:03:06,VALID,918.214,VALID,0.0,VALID,92.954,VALID,0.003,VALID,19.467,VALID,286.0,VALID,0.0,
2018-09-01, 02:04:06,VALID,918.231,VALID,0.0,VALID,92.975,VALID,0.007,VALID,19.485,VALID,286.0,VALID,0.0,
2018-09-01, 02:05:06,VALID,918.247,VALID,0.0,VALID,92.803,VALID,-0.016,VALID,19.495,VALID,286.0,VALID,0.0,
2018-09-01, 02:06:06,VALID,918.259,VALID,0.0,VALID,92.532,VALID,0.017,VALID,19.508,VALID,286.0,VALID,0.0,
2018-09-01, 02:07:06,VALID,918.268,VALID,0.0,VALID,92.52,VALID,-0.005,VALID,19.556,VALID,286.0,VALID,0.0,
2018-09-01, 02:08:06,VALID,918.293,VALID,0.0,VALID,92.801,VALID,0.005,VALID,19.577,VALID,286.0,VALID,0.0,
2018-09-01, 02:09:06,VALID,918.305,VALID,0.0,VALID,93.072,VALID,-0.002,VALID,19.537,VALID,286.0,VALID,0.0,
2018-09-01, 02:10:06,VALID,918.279,VALID,0.0,VALID,93.136,VALID,-0.0,VALID,19.497,VALID,286.0,VALID,0.0,
2018-09-01, 02:11:06,VALID,918.283,VALID,0.0,VALID,93.165,VALID,0.0,VALID,19.485,VALID,286.0,VALID,0.0,
2018-09-01, 02:12:06,VALID,918.252,VALID,0.0,VALID,93.207,VALID,-0.005,VALID,19.456,VALID,286.0,VALID,0.0,
2018-09-01, 02:13:06,VALID,918.233,VALID,0.0,VALID,93.068,VALID,-0.007,VALID,19.403,VALID,286.0,VALID,0.0,
2018-09-01, 02:14:06,VALID,918.202,VALID,0.0,VALID,92.996,VALID,-0.009,VALID,19.406,VALID,277.0,VALID,0.0,
2018-09-01, 02:15:06,VALID,918.188,VALID,0.0,VALID,93.416,VALID,-0.014,VALID,19.426,VALID,268.0,VALID,0.0,
2018-09-01, 02:16:06,VALID,918.177,VALID,0.0,VALID,93.664,VALID,-0.018,VALID,19.466,VALID,268.0,VALID,0.0,
2018-09-01, 02:17:06,VALID,918.163,VALID,0.0,VALID,94.212,VALID,-0.01,VALID,19.544,VALID,268.0,VALID,0.0,
2018-09-01, 02:18:07,VALID,918.182,VALID,0.0,VALID,93.717,VALID,0.004,VALID,19.536,VALID,267.0,VALID,0.0,
2018-09-01, 02:19:07,VALID,918.182,VALID,0.0,VALID,92.969,VALID,-0.004,VALID,19.393,VALID,267.0,VALID,0.0,
2018-09-01, 02:20:07,VALID,918.21,VALID,0.0,VALID,93.838,VALID,-0.003,VALID,19.363,VALID,267.0,VALID,0.0,
2018-09-01, 02:21:07,VALID,918.236,VALID,0.0,VALID,94.02,VALID,0.001,VALID,19.357,VALID,267.0,VALID,0.0,
2018-09-01, 02:22:07,VALID,918.247,VALID,0.0,VALID,94.245,VALID,-0.04,VALID,19.379,VALID,251.0,VALID,0.0,
2018-09-01, 02:23:07,VALID,918.246,VALID,0.0,VALID,94.814,VALID,-0.032,VALID,19.437,VALID,247.0,VALID,0.0,
2018-09-01, 02:24:07,VALID,918.251,VALID,0.0,VALID,94.118,VALID,-0.04,VALID,19.379,VALID,247.0,VALID,0.0,
2018-09-01, 02:25:07,VALID,918.241,VALID,0.0,VALID,94.278,VALID,-0.054,VALID,19.306,VALID,239.0,VALID,0.0,
2018-09-01, 02:26:07,VALID,918.24,VALID,0.0,VALID,94.621,VALID,-0.054,VALID,19.256,VALID,204.0,VALID,0.0,
2018-09-01, 02:27:07,VALID,918.211,VALID,0.0,VALID,94.761,VALID,-0.053,VALID,19.228,VALID,204.0,VALID,0.0,
2018-09-01, 02:28:07,VALID,918.209,VALID,0.0,VALID,94.751,VALID,-0.046,VALID,19.216,VALID,204.0,VALID,0.0,
2018-09-01, 02:29:07,VALID,918.173,VALID,0.0,VALID,94.632,VALID,-0.04,VALID,19.186,VALID,204.0,VALID,0.0,
2018-09-01, 02:30:07,VALID,918.154,VALID,0.0,VALID,94.585,VALID,-0.037,VALID,19.148,VALID,203.0,VALID,0.0,
2018-09-01, 02:31:07,VALID,918.142,VALID,0.0,VALID,94.414,VALID,-0.032,VALID,19.085,VALID,113.0,VALID,0.0,
2018-09-01, 02:32:07,VALID,918.11,VALID,0.0,VALID,94.561,VALID,-0.057,VALID,19.029,VALID,93.0,VALID,0.0,
2018-09-01, 02:33:07,VALID,918.12,VALID,0.0,VALID,95.196,VALID,-0.054,VALID,19.016,VALID,93.0,VALID,0.0,
2018-09-01, 02:34:07,VALID,918.081,VALID,0.0,VALID,95.487,VALID,-0.036,VALID,19.021,VALID,96.0,VALID,0.0,
2018-09-01, 02:35:07,VALID,918.055,VALID,0.0,VALID,95.669,VALID,-0.054,VALID,19.054,VALID,126.0,VALID,0.0,
2018-09-01, 02:36:07,VALID,918.017,VALID,0.0,VALID,95.557,VALID,-0.061,VALID,19.076,VALID,142.0,VALID,0.0,
2018-09-01, 02:37:07,VALID,918.0,VALID,0.0,VALID,95.338,VALID,0.007,VALID,19.064,VALID,148.0,VALID,0.0,
2018-09-01, 02:38:07,VALID,917.974,VALID,0.0,VALID,95.071,VALID,-0.009,VALID,19.015,VALID,148.0,VALID,0.0,
2018-09-01, 02:39:07,VALID,917.982,VALID,0.0,VALID,95.013,VALID,0.002,VALID,18.961,VALID,145.0,VALID,0.0,
2018-09-01, 02:40:07,VALID,917.97,VALID,0.0,VALID,95.037,VALID,-0.032,VALID,18.921,VALID,136.0,VALID,0.0,
2018-09-01, 02:41:07,VALID,917.964,VALID,0.0,VALID,95.201,VALID,-0.013,VALID,18.893,VALID,132.0,VALID,0.0,
2018-09-01, 02:42:07,VALID,917.984,VALID,0.0,VALID,95.386,VALID,-0.007,VALID,18.88,VALID,132.0,VALID,0.0,
2018-09-01, 02:43:07,VALID,917.971,VALID,0.0,VALID,95.284,VALID,-0.017,VALID,18.83,VALID,119.0,VALID,0.0,
2018-09-01, 02:44:07,VALID,917.979,VALID,0.0,VALID,95.241,VALID,-0.021,VALID,18.778,VALID,119.0,VALID,0.0,
2018-09-01, 02:45:07,VALID,917.948,VALID,0.0,VALID,95.477,VALID,-0.02,VALID,18.749,VALID,118.0,VALID,0.0,
2018-09-01, 02:46:07,VALID,917.902,VALID,0.0,VALID,95.693,VALID,-0.022,VALID,18.729,VALID,119.0,VALID,0.0,
2018-09-01, 02:47:07,VALID,917.916,VALID,0.0,VALID,95.891,VALID,-0.013,VALID,18.713,VALID,121.0,VALID,0.0,
2018-09-01, 02:48:07,VALID,917.877,VALID,0.0,VALID,96.37,VALID,-0.003,VALID,18.738,VALID,123.0,VALID,0.0,
2018-09-01, 02:49:07,VALID,917.861,VALID,0.0,VALID,96.671,VALID,-0.007,VALID,18.753,VALID,123.0,VALID,0.0,
2018-09-01, 02:50:07,VALID,917.844,VALID,0.0,VALID,96.795,VALID,0.029,VALID,18.766,VALID,123.0,VALID,0.0,
2018-09-01, 02:51:07,VALID,917.853,VALID,0.0,VALID,96.686,VALID,0.001,VALID,18.741,VALID,123.0,VALID,0.0,
2018-09-01, 02:52:07,VALID,917.833,VALID,0.0,VALID,96.343,VALID,-0.004,VALID,18.693,VALID,123.0,VALID,0.0,
2018-09-01, 02:53:07,VALID,917.852,VALID,0.0,VALID,96.255,VALID,-0.009,VALID,18.703,VALID,123.0,VALID,0.0,
2018-09-01, 02:54:07,VALID,917.851,VALID,0.0,VALID,96.239,VALID,0.019,VALID,18.756,VALID,123.0,VALID,0.0,
2018-09-01, 02:55:07,VALID,917.843,VALID,0.0,VALID,95.956,VALID,0.031,VALID,18.802,VALID,123.0,VALID,0.0,
2018-09-01, 02:56:07,VALID,917.847,VALID,0.0,VALID,95.539,VALID,0.017,VALID,18.813,VALID,123.0,VALID,0.0,
2018-09-01, 02:57:07,VALID,917.838,VALID,0.0,VALID,95.002,VALID,0.025,VALID,18.804,VALID,123.0,VALID,0.0,
2018-09-01, 02:58:07,VALID,917.828,VALID,0.0,VALID,94.568,VALID,0.014,VALID,18.793,VALID,123.0,VALID,0.0,
2018-09-01, 02:59:07,VALID,917.811,VALID,0.0,VALID,94.327,VALID,0.024,VALID,18.781,VALID,123.0,VALID,0.0,
2018-09-01, 03:00:07,VALID,917.792,VALID,0.0,VALID,94.362,VALID,0.023,VALID,18.791,VALID,123.0,VALID,0.0,
2018-09-01, 03:01:07,VALID,917.785,VALID,0.0,VALID,94.412,VALID,0.014,VALID,18.807,VALID,123.0,VALID,0.0,
2018-09-01, 03:02:07,VALID,917.775,VALID,0.0,VALID,94.079,VALID,0.013,VALID,18.856,VALID,123.0,VALID,0.0,
2018-09-01, 03:03:07,VALID,917.772,VALID,0.0,VALID,93.724,VALID,0.023,VALID,18.909,VALID,123.0,VALID,0.0,
2018-09-01, 03:04:07,VALID,917.789,VALID,0.0,VALID,93.361,VALID,0.036,VALID,18.867,VALID,123.0,VALID,0.0,
2018-09-01, 03:05:07,VALID,917.789,VALID,0.0,VALID,93.917,VALID,0.025,VALID,18.809,VALID,123.0,VALID,0.0,
2018-09-01, 03:06:07,VALID,917.792,VALID,0.0,VALID,94.554,VALID,0.03,VALID,18.755,VALID,123.0,VALID,0.0,
2018-09-01, 03:07:07,VALID,917.794,VALID,0.0,VALID,94.528,VALID,0.012,VALID,18.699,VALID,123.0,VALID,0.0,
2018-09-01, 03:08:07,VALID,917.794,VALID,0.0,VALID,94.4,VALID,0.009,VALID,18.665,VALID,123.0,VALID,0.0,
2018-09-01, 03:09:07,VALID,917.794,VALID,0.0,VALID,94.488,VALID,0.003,VALID,18.682,VALID,123.0,VALID,0.0,
2018-09-01, 03:10:07,VALID,917.784,VALID,0.0,VALID,93.861,VALID,0.006,VALID,18.719,VALID,123.0,VALID,0.0,
2018-09-01, 03:11:07,VALID,917.769,VALID,0.0,VALID,93.558,VALID,0.003,VALID,18.736,VALID,123.0,VALID,0.0,
2018-09-01, 03:12:07,VALID,917.769,VALID,0.0,VALID,93.535,VALID,0.021,VALID,18.738,VALID,123.0,VALID,0.0,
2018-09-01, 03:13:07,VALID,917.744,VALID,0.0,VALID,93.586,VALID,0.006,VALID,18.681,VALID,123.0,VALID,0.0,
2018-09-01, 03:14:07,VALID,917.726,VALID,0.0,VALID,93.691,VALID,0.016,VALID,18.593,VALID,123.0,VALID,0.0,
2018-09-01, 03:15:07,VALID,917.743,VALID,0.0,VALID,93.906,VALID,-0.005,VALID,18.565,VALID,123.0,VALID,0.0,
2018-09-01, 03:16:07,VALID,917.744,VALID,0.0,VALID,93.934,VALID,-0.009,VALID,18.57,VALID,123.0,VALID,0.0,
2018-09-01, 03:17:07,VALID,917.736,VALID,0.0,VALID,93.93,VALID,0.001,VALID,18.549,VALID,77.0,VALID,0.0,
2018-09-01, 03:18:07,VALID,917.735,VALID,0.0,VALID,93.989,VALID,0.001,VALID,18.541,VALID,53.0,VALID,0.0,
2018-09-01, 03:19:07,VALID,917.759,VALID,0.0,VALID,94.084,VALID,-0.003,VALID,18.553,VALID,53.0,VALID,0.0,
2018-09-01, 03:20:07,VALID,917.768,VALID,0.0,VALID,93.725,VALID,-0.012,VALID,18.675,VALID,273.0,VALID,0.0,
2018-09-01, 03:21:07,VALID,917.792,VALID,0.0,VALID,93.101,VALID,0.014,VALID,18.926,VALID,240.0,VALID,0.0,
2018-09-01, 03:22:07,VALID,917.776,VALID,0.0,VALID,91.938,VALID,0.009,VALID,18.978,VALID,240.0,VALID,0.0,
2018-09-01, 03:23:07,VALID,917.795,VALID,0.0,VALID,91.449,VALID,-0.004,VALID,18.907,VALID,237.0,VALID,0.0,
2018-09-01, 03:24:07,VALID,917.793,VALID,0.0,VALID,91.54,VALID,0.023,VALID,18.75,VALID,111.0,VALID,0.0,
2018-09-01, 03:25:07,VALID,917.804,VALID,0.0,VALID,91.842,VALID,0.003,VALID,18.527,VALID,92.0,VALID,0.0,
2018-09-01, 03:26:07,VALID,917.786,VALID,0.0,VALID,93.152,VALID,0.027,VALID,18.374,VALID,102.0,VALID,0.0,
2018-09-01, 03:27:07,VALID,917.798,VALID,0.0,VALID,93.376,VALID,0.019,VALID,18.294,VALID,103.0,VALID,0.0,
2018-09-01, 03:28:07,VALID,917.802,VALID,0.0,VALID,93.836,VALID,-0.002,VALID,18.275,VALID,103.0,VALID,0.0,
2018-09-01, 03:29:07,VALID,917.81,VALID,0.0,VALID,94.014,VALID,0.003,VALID,18.244,VALID,103.0,VALID,0.0,
2018-09-01, 03:30:07,VALID,917.818,VALID,0.0,VALID,94.397,VALID,-0.003,VALID,18.245,VALID,103.0,VALID,0.0,
2018-09-01, 03:31:07,VALID,917.824,VALID,0.0,VALID,94.655,VALID,0.008,VALID,18.25,VALID,110.0,VALID,0.0,
2018-09-01, 03:32:07,VALID,917.832,VALID,0.0,VALID,94.76,VALID,0.01,VALID,18.231,VALID,106.0,VALID,0.0,
2018-09-01, 03:33:07,VALID,917.821,VALID,0.0,VALID,95.153,VALID,0.011,VALID,18.253,VALID,113.0,VALID,0.0,
2018-09-01, 03:34:07,VALID,917.807,VALID,0.0,VALID,96.192,VALID,-0.0,VALID,18.324,VALID,117.0,VALID,0.0,
2018-09-01, 03:35:07,VALID,917.79,VALID,0.0,VALID,95.027,VALID,0.015,VALID,18.162,VALID,116.0,VALID,0.0,
2018-09-01, 03:36:07,VALID,917.788,VALID,0.0,VALID,95.339,VALID,-0.007,VALID,18.131,VALID,115.0,VALID,0.0,
2018-09-01, 03:37:07,VALID,917.776,VALID,0.0,VALID,95.965,VALID,-0.001,VALID,18.156,VALID,115.0,VALID,0.0,
2018-09-01, 03:38:07,VALID,917.785,VALID,0.0,VALID,96.555,VALID,-0.011,VALID,18.217,VALID,115.0,VALID,0.0,
2018-09-01, 03:39:07,VALID,917.794,VALID,0.0,VALID,97.172,VALID,-0.011,VALID,18.283,VALID,115.0,VALID,0.0,
2018-09-01, 03:40:07,VALID,917.795,VALID,0.0,VALID,97.435,VALID,-0.014,VALID,18.304,VALID,115.0,VALID,0.0,
2018-09-01, 03:41:07,VALID,917.828,VALID,0.0,VALID,97.355,VALID,-0.013,VALID,18.27,VALID,109.0,VALID,0.0,